{"data":{"norad_id":55334,"intl_designator":"2023-013D","name":"STARLINK-5652","alt_names":[],"object_type":"PAYLOAD","status":"ACTIVE","operator":null,"country":"US","launch_date":"2023-01-26","launch_site_code":"AFETR","launch_vehicle":null,"mission":null,"orbit_class":"UNKNOWN","rcs_meters":null,"size_class":null,"mass_kg":null,"dimensions":null,"purposes":["comms"],"wikipedia_slug":null,"has_3d_model":false,"image_url":null,"decayed_at":null,"tle_current":{"epoch":"2026-05-24T22:36:15.631776Z","epoch_age_seconds":83300,"freshness":"FRESH","line1":"1 55334U 23013D   26144.94184759 -.00000200  00000+0  22659-5 0  9994","line2":"2 55334  43.0021 232.8125 0001190 278.0883  81.9834 15.27578526183331","mean_motion":15.27578526,"eccentricity":0.000119,"inclination_deg":43.0021,"raan_deg":232.8125,"arg_perigee_deg":278.0883,"mean_anomaly_deg":81.9834,"bstar":2.2659e-6,"rev_number":18333,"period_min":94.266839674074,"perigee_km":482.23702805881,"apogee_km":483.86999140013,"semimajor_km":6861.1905097295,"source":"CELESTRAK","updated_at":"2026-05-25T13:38:17.760151Z"}}}